Borger, TX

4:59 AM CDT on April 25, 2018 (GMT -0500)
Hutchinson County

Weather History for KBGD - October, 2012

Change the Weather History Date:

Wednesday, October 3, 2012

  Actual Average Record
Temperature  
Mean Temperature 70 °F 65 °F  
Max Temperature 85 °F 77 °F 100 °F (2000)
Min Temperature 55 °F 53 °F 37 °F (1999)
Degree Days  
Heating Degree Days 0 3  
Month to date heating degree days 3 9  
Since 1 July heating degree days 20 37  
Cooling Degree Days 5 3  
Month to date cooling degree days 5 11  
Year to date cooling degree days 2463 1796  
Growing Degree Days 20 (Base 50)    
Moisture  
Dew Point 50 °F    
Average Humidity 54    
Maximum Humidity 77    
Minimum Humidity 31    
Precipitation  
Precipitation 0.00 in 0.08 in 0.38 in (2015)
Month to date precipitation 0.01 0.24  
Year to date precipitation 15.20 18.63  
Snow  
Snow 0.00 in - 0.00 in (2013)
Month to date snowfall 0.0  
Since 1 July snowfall 0.0  
Since 1 September snowfall 0.0  
Snow Depth 0.00 in    
Sea Level Pressure  
Sea Level Pressure 29.81 in    
Wind  
Wind Speed 11 mph (SSW)    
Max Wind Speed 21 mph    
Max Gust Speed 30 mph    
Visibility 10 miles    
Events      
T = Trace of Precipitation, MM = Missing Value Source: NWS Daily Summary

Daily Weather History Graph

Daily Weather History Graph

Search for Another Location

Airport or City:

Astronomy

Oct. 03, 2012 Rise Set
Actual Time 7:42 AM CDT 7:25 PM CDT
Civil Twilight 7:17 AM CDT 7:51 PM CDT
Nautical Twilight 6:47 AM CDT 8:20 PM CDT
Astronomical Twilight 6:17 AM CDT 8:50 PM CDT
Moon 9:27 PM CDT (10/3) 10:59 AM CDT (10/3)
Length of Visible Light 12h 34m
Length of Day
11h 43m
Waning Gibbous, 88% of the Moon is Illuminated
Oct 3
Waning Gibbous
Oct 8
Last Quarter
Oct 15
New
Oct 21
First Quarter
Oct 29
Full

Hourly Weather History & Observations

Time (CDT) Temp. Dew Point Humidity Pressure Visibility Wind Dir Wind Speed Gust Speed Precip Events Conditions
12:51 AM 61.0 °F 46.0 °F 58% 29.85 in 10.0 mi South 10.4 mph 16.1 mph N/A   Clear
1:51 AM 59.0 °F 46.9 °F 64% 29.85 in 10.0 mi SSW 3.5 mph - N/A   Clear
2:51 AM 57.9 °F 48.0 °F 70% 29.85 in 10.0 mi SSW 6.9 mph - N/A   Clear
3:51 AM 57.0 °F 48.0 °F 72% 29.84 in 10.0 mi SW 3.5 mph - N/A   Clear
4:51 AM 57.0 °F 48.0 °F 72% 29.83 in 10.0 mi South 4.6 mph - N/A   Clear
5:51 AM 55.9 °F 48.9 °F 77% 29.83 in 10.0 mi South 5.8 mph - N/A   Clear
6:51 AM 55.9 °F 48.9 °F 77% 29.84 in 10.0 mi SW 5.8 mph - N/A   Clear
7:51 AM 57.0 °F 48.9 °F 74% 29.85 in 10.0 mi SSW 6.9 mph - N/A   Clear
8:51 AM 61.0 °F 48.9 °F 64% 29.84 in 10.0 mi SW 10.4 mph 17.3 mph N/A   Clear
9:51 AM 66.0 °F 50.0 °F 56% 29.84 in 10.0 mi SW 10.4 mph 16.1 mph N/A   Clear
10:51 AM 69.1 °F 50.0 °F 51% 29.84 in 10.0 mi SW 13.8 mph 19.6 mph N/A   Clear
11:51 AM 73.0 °F 51.1 °F 46% 29.83 in 10.0 mi SW 8.1 mph 18.4 mph N/A   Clear
12:51 PM 77.0 °F 51.1 °F 40% 29.81 in 10.0 mi SSW 11.5 mph 16.1 mph N/A   Clear
1:51 PM 80.1 °F 51.1 °F 36% 29.79 in 10.0 mi SSW 12.7 mph 17.3 mph N/A   Clear
2:51 PM 82.9 °F 51.1 °F 33% 29.76 in 10.0 mi SSW 10.4 mph 20.7 mph N/A   Clear
3:51 PM 84.0 °F 50.0 °F 31% 29.74 in 10.0 mi South 13.8 mph 27.6 mph N/A   Clear
4:51 PM 84.0 °F 50.0 °F 31% 29.75 in 10.0 mi South 12.7 mph 24.2 mph N/A   Clear
5:51 PM 82.9 °F 50.0 °F 32% 29.75 in 10.0 mi SSE 16.1 mph 25.3 mph N/A   Clear
6:51 PM 79.0 °F 52.0 °F 39% 29.77 in 10.0 mi SSE 12.7 mph 24.2 mph N/A   Clear
7:51 PM 75.0 °F 53.1 °F 46% 29.80 in 10.0 mi SSE 13.8 mph 21.9 mph N/A   Clear
8:51 PM 72.0 °F 53.1 °F 51% 29.80 in 10.0 mi SSE 11.5 mph - N/A   Clear
9:51 PM 71.1 °F 53.1 °F 53% 29.80 in 10.0 mi SSE 13.8 mph 21.9 mph N/A   Clear
11:51 PM 68.0 °F 54.0 °F 61% 29.81 in 10.0 mi South 18.4 mph 28.8 mph N/A   Clear